Regional Weather Roundup
Issued by NWS

Home | Current Version | Previous Version | Text Only | Print | Product List | Glossary On
Versions: 1 2 3 4 5 6 7 8 9 10 11 12 13 14 15 16 17 18 19 20 21 22 23 24 25 26 27 28 29 30 31 32 33 34 35 36 37 38 39 40 41 42 43 44 45 46 47 48 49 50
000
ASUS45 KCYS 021110
RWRWY

WYOMING REGIONAL WEATHER ROUNDUP
NATIONAL WEATHER SERVICE CHEYENNE WY
500 AM MDT WED SEP 02 2015

NOTE:  "FAIR" INDICATES FEW OR NO CLOUDS BELOW 12,000 FEET
WITH NO SIGNIFICANT WEATHER AND/OR OBSTRUCTIONS TO VISIBILITY.

WYZ001-021200-
YELLOWSTONE NATIONAL PARK

CITY           SKY/WX    TMP DP  RH WIND       PRES   REMARKS
LK YELLOWSTONE   N/A     40  39  97 CALM      30.15S
W YELLOWSTONE  NOT AVBL

$$
WYZ002>013-054>058-071-098>099-021200-
NORTHERN WYOMING

CITY           SKY/WX    TMP DP  RH WIND       PRES   REMARKS
JACKSON        FAIR      43  36  75 N6        30.08S
CODY           FAIR      64  30  27 SW8       29.93R
GREYBULL       FAIR      66  40  38 S3        29.86R
WORLAND        FAIR      61  39  44 CALM      29.89R
SHERIDAN       FAIR      58  39  49 S5        29.85S
BUFFALO        FAIR      72  35  25 W14       29.94R
GILLETTE       FAIR      72  41  32 SW21      29.88R
HULETT         FAIR      75  41  29 MISG      29.90S
NEWCASTLE        N/A     63  37  39 SE7       29.95S

$$
WYZ014>020-022>026-101>103-021200-
CENTRAL WYOMING

CITY           SKY/WX    TMP DP  RH WIND       PRES   REMARKS
BIG PINEY      FAIR      43  31  62 CALM      30.17S
PINEDALE       FAIR      46  37  71 E7        30.19S
DUBOIS         FAIR      48  32  53 CALM      30.12S
LANDER         FAIR      71  37  28 SW13      30.00S
RIVERTON       FAIR      59  40  49 S5        30.02R
CASPER         MOCLDY    67  39  35 S21G26    30.04R
DOUGLAS        FAIR      70  39  32 W7        30.02R

$$
WYZ021-027>030-104>119-021200-
SOUTHERN WYOMING

CITY           SKY/WX    TMP DP  RH WIND       PRES   REMARKS
EVANSTON       FAIR      60  38  43 SW14      30.18S
KEMMERER       FAIR      59  36  41 W3        30.19R
FORT BRIDGER   SUNNY     66  36  32 SW21G26   30.20S
ROCK SPRINGS   FAIR      57  41  55 SE8       30.17S
DIXON          FAIR      52  43  71 E7        30.24S
RAWLINS        FAIR      61  40  45 SW14G23   30.18S
SARATOGA       FAIR      54  41  62 SE12      30.23S
LARAMIE        FAIR      52  41  66 SW7       30.23R
CHEYENNE       FAIR      65  40  39 W12       30.11S
TORRINGTON     FAIR      57  45  64 CALM      29.98R
PINE BLUFFS    FAIR      54  39  58 CALM      30.06F

$$


USA.gov is the U.S. government's official web portal to all federal, state and local government web resources and services.